Weather History for Hazen, ND

Change the Weather History Date:

Monday, January 7, 2013

  Actual Average (KN60) Record (KN60)
Temperature  
Mean Temperature 16 °F -  
Max Temperature 30 °F 15 °F - (-1)
Min Temperature 0 °F 0 °F - (-1)
Degree Days  
Heating Degree Days 50    
Moisture  
Dew Point 15 °F    
Average Humidity 76    
Maximum Humidity 92    
Minimum Humidity 68    
Precipitation  
Precipitation 0.00 in - - ()
Sea Level Pressure  
Sea Level Pressure 29.81 in    
Wind  
Wind Speed 11 mph (WSW)    
Max Wind Speed 17 mph    
Max Gust Speed 22 mph    
Visibility 10 miles    
Events      
Averages and records for this station are not official NWS values.
T = Trace of Precipitation, MM = Missing Value Source: NWS Daily Summary

Daily Weather History Graph

Daily Weather History Graph

Search for Another Location

Airport:

Trip Planner

Search our weather history database for the weather conditions in past years. The results will help you decide how hot, cold, wet, or windy it might be!

Date:

Astronomy

Jan. 07, 2013 Rise Set
Actual Time 8:32 AM CST 5:13 PM CST
Civil Twilight 7:57 AM CST 5:48 PM CST
Nautical Twilight 7:18 AM CST 6:27 PM CST
Astronomical Twilight 6:41 AM CST 7:04 PM CST
Moon 3:53 AM CST (1/7) 1:29 PM CST (1/7)
Length of Visible Light 9h 51m
Length of Day
8h 41m
Waning Crescent, 22% of the Moon is Illuminated
Jan 7
Waning Crescent
Jan 11
New
Jan 18
First Quarter
Jan 26
Full
Feb 3
Last Quarter

Hourly Weather History & Observations

Time (CST) Temp. Windchill Dew Point Humidity Pressure Visibility Wind Dir Wind Speed Gust Speed Precip Events Conditions
12:15 AM 28.4 °F 17.5 °F 19.4 °F 69% 29.74 in 10.0 mi SW 13.8 mph 20.7 mph N/A   Clear
12:35 AM 26.6 °F 15.2 °F 19.4 °F 74% 29.75 in 10.0 mi SW 13.8 mph - N/A   Partly Cloudy
12:55 AM 26.6 °F 15.2 °F 19.4 °F 74% 29.75 in 10.0 mi WSW 13.8 mph - N/A   Partly Cloudy
1:15 AM 26.6 °F 14.7 °F 19.4 °F 74% 29.74 in 10.0 mi WSW 15.0 mph - N/A   Partly Cloudy
1:35 AM 26.6 °F 14.3 °F 19.4 °F 74% 29.75 in 10.0 mi WSW 16.1 mph - N/A   Partly Cloudy
1:55 AM 26.6 °F 15.7 °F 19.4 °F 74% 29.76 in 10.0 mi WSW 12.7 mph - N/A   Partly Cloudy
2:15 AM 26.6 °F 15.2 °F 19.4 °F 74% 29.77 in 10.0 mi WSW 13.8 mph - N/A   Partly Cloudy
2:35 AM 23.0 °F 13.1 °F 15.8 °F 74% 29.78 in 10.0 mi West 9.2 mph - N/A   Clear
2:55 AM 24.8 °F 15.3 °F 17.6 °F 74% 29.78 in 10.0 mi WSW 9.2 mph - N/A   Partly Cloudy
3:15 AM 23.0 °F 13.9 °F 15.8 °F 74% 29.79 in 10.0 mi West 8.1 mph - N/A   Clear
3:35 AM 24.8 °F 14.6 °F 17.6 °F 74% 29.79 in 10.0 mi West 10.4 mph - N/A   Clear
3:55 AM 24.8 °F 16.1 °F 17.6 °F 74% 29.79 in 10.0 mi WSW 8.1 mph - N/A   Clear
4:15 AM 23.0 °F 12.4 °F 17.6 °F 80% 29.78 in 10.0 mi WSW 10.4 mph - N/A   Clear
4:35 AM 24.8 °F 16.1 °F 17.6 °F 74% 29.78 in 10.0 mi SW 8.1 mph - N/A   Clear
4:55 AM 24.8 °F 16.1 °F 17.6 °F 74% 29.78 in 10.0 mi WSW 8.1 mph - N/A   Partly Cloudy
5:15 AM 21.2 °F 12.6 °F 15.8 °F 80% 29.79 in 10.0 mi WSW 6.9 mph - N/A   Partly Cloudy
5:35 AM 21.2 °F 10.9 °F 15.8 °F 80% 29.79 in 10.0 mi WSW 9.2 mph - N/A   Partly Cloudy
5:55 AM 21.2 °F 12.6 °F 15.8 °F 80% 29.79 in 10.0 mi WSW 6.9 mph - N/A   Partly Cloudy
6:35 AM 23.0 °F 11.1 °F 15.8 °F 74% 29.79 in 10.0 mi SW 12.7 mph - N/A   Scattered Clouds
6:55 AM 21.2 °F 8.9 °F 14.0 °F 74% 29.79 in 10.0 mi WSW 12.7 mph - N/A   Partly Cloudy
7:15 AM 19.4 °F 7.2 °F 14.0 °F 80% 29.80 in 10.0 mi WSW 11.5 mph - N/A   Partly Cloudy
7:35 AM 19.4 °F 6.0 °F 14.0 °F 80% 29.81 in 10.0 mi WSW 13.8 mph - N/A   Partly Cloudy
7:55 AM 23.0 °F 10.1 °F 15.8 °F 74% 29.81 in 10.0 mi SW 15.0 mph - N/A   Clear
8:15 AM 23.0 °F 10.1 °F 15.8 °F 74% 29.81 in 10.0 mi SW 15.0 mph 19.6 mph N/A   Clear
8:35 AM 23.0 °F 10.6 °F 14.0 °F 68% 29.81 in 10.0 mi WSW 13.8 mph - N/A   Clear
8:55 AM 21.2 °F 10.9 °F 14.0 °F 74% 29.82 in 10.0 mi West 9.2 mph - N/A   Clear
9:15 AM 19.4 °F 6.6 °F 14.0 °F 80% 29.84 in 10.0 mi West 12.7 mph - N/A   Clear
9:35 AM 21.2 °F 10.1 °F 14.0 °F 74% 29.84 in 10.0 mi West 10.4 mph - N/A   Clear
9:55 AM 21.2 °F 10.9 °F 14.0 °F 74% 29.84 in 10.0 mi WSW 9.2 mph - N/A   Clear
10:15 AM 23.0 °F 11.7 °F 14.0 °F 68% 29.85 in 10.0 mi West 11.5 mph - N/A   Clear
10:35 AM 23.0 °F 11.1 °F 14.0 °F 68% 29.86 in 10.0 mi WSW 12.7 mph - N/A   Clear
10:55 AM 23.0 °F 11.1 °F 15.8 °F 74% 29.86 in 10.0 mi WSW 12.7 mph - N/A   Clear
11:15 AM 24.8 °F 14.0 °F 15.8 °F 69% 29.86 in 10.0 mi WSW 11.5 mph - N/A   Clear
11:35 AM 24.8 °F 12.4 °F 17.6 °F 74% 29.84 in 10.0 mi SW 15.0 mph 21.9 mph N/A   Clear
11:55 AM 26.6 °F 13.8 °F 17.6 °F 69% 29.84 in 10.0 mi WSW 17.3 mph - N/A   Clear
12:15 PM 26.6 °F 14.3 °F 17.6 °F 69% 29.83 in 10.0 mi WSW 16.1 mph - N/A   Clear
12:35 PM 26.6 °F 14.3 °F 19.4 °F 74% 29.83 in 10.0 mi WSW 16.1 mph - N/A   Clear
1:15 PM 28.4 °F 17.5 °F 19.4 °F 69% 29.83 in 10.0 mi WSW 13.8 mph - N/A   Clear
1:35 PM 28.4 °F 18.5 °F 19.4 °F 69% 29.82 in 10.0 mi WSW 11.5 mph - N/A   Clear
1:55 PM 28.4 °F 18.5 °F 19.4 °F 69% 29.83 in 10.0 mi WSW 11.5 mph - N/A   Clear
2:15 PM 30.2 °F 20.8 °F 21.2 °F 69% 29.83 in 10.0 mi West 11.5 mph - N/A   Clear
2:35 PM 30.2 °F 21.3 °F 21.2 °F 69% 29.84 in 10.0 mi WSW 10.4 mph - N/A   Clear
2:55 PM 30.2 °F 23.4 °F 21.2 °F 69% 29.84 in 10.0 mi WSW 6.9 mph - N/A   Clear
3:15 PM 28.4 °F 20.4 °F 19.4 °F 69% 29.84 in 10.0 mi WSW 8.1 mph - N/A   Clear
3:35 PM 28.4 °F 20.4 °F 19.4 °F 69% 29.84 in 10.0 mi WSW 8.1 mph - N/A   Clear
3:55 PM 28.4 °F 23.3 °F 19.4 °F 69% 29.83 in 10.0 mi SW 4.6 mph - N/A   Clear
4:15 PM 28.4 °F 23.3 °F 19.4 °F 69% 29.84 in 10.0 mi SW 4.6 mph - N/A   Clear
4:35 PM 28.4 °F 23.3 °F 19.4 °F 69% 29.84 in 10.0 mi SW 4.6 mph - N/A   Clear
5:15 PM 23.0 °F 13.1 °F 15.8 °F 74% 29.83 in 10.0 mi West 9.2 mph - N/A   Clear
5:35 PM 23.0 °F 15.8 °F 17.6 °F 80% 29.83 in 10.0 mi SW 5.8 mph - N/A   Clear
5:55 PM 23.0 °F 15.8 °F 15.8 °F 74% 29.84 in 10.0 mi SW 5.8 mph - N/A   Clear
6:15 PM 17.6 °F 8.2 °F 10.4 °F 73% 29.83 in 10.0 mi SSW 6.9 mph - N/A   Clear
6:35 PM 23.0 °F 13.9 °F 15.8 °F 74% 29.83 in 10.0 mi SW 8.1 mph - N/A   Clear
6:55 PM 23.0 °F 14.7 °F 15.8 °F 74% 29.83 in 10.0 mi SW 6.9 mph - N/A   Clear
7:15 PM 14.0 °F - 10.4 °F 86% 29.83 in 10.0 mi Calm Calm - N/A   Clear
7:35 PM 17.6 °F - 14.0 °F 86% 29.83 in 10.0 mi Calm Calm - N/A   Clear
7:55 PM 12.2 °F 0.7 °F 6.8 °F 79% 29.83 in 10.0 mi SSW 8.1 mph - N/A   Clear
8:15 PM 15.8 °F 6.1 °F 10.4 °F 79% 29.83 in 10.0 mi SSW 6.9 mph - N/A   Clear
8:35 PM 12.2 °F 6.1 °F 8.6 °F 85% 29.82 in 10.0 mi WNW 3.5 mph - N/A   Clear
8:55 PM 10.4 °F - 6.8 °F 85% 29.81 in 10.0 mi Calm Calm - N/A   Clear
9:35 PM 6.8 °F - 3.2 °F 85% 29.80 in 10.0 mi Calm Calm - N/A   Clear
9:55 PM 6.8 °F - 3.2 °F 85% 29.79 in 10.0 mi Calm Calm - N/A   Clear
10:15 PM 6.8 °F -0.1 °F 3.2 °F 85% 29.78 in 10.0 mi SW 3.5 mph - N/A   Clear
10:55 PM 1.4 °F - -0.4 °F 92% 29.77 in 10.0 mi Calm Calm - N/A   Clear
11:15 PM 1.4 °F - -0.4 °F 92% 29.76 in 10.0 mi Calm Calm - N/A   Clear
11:35 PM 1.4 °F - -0.4 °F 92% 29.76 in 10.0 mi Calm Calm - N/A   Clear
11:55 PM -0.4 °F - -4.0 °F 85% 29.75 in 10.0 mi Calm Calm - N/A   Clear